Regional Weather Roundup
Issued by NWS

Home | Current Version | Previous Version | Graphics & Text | Print | Product List | Glossary Off
Versions: 1 2 3 4 5 6 7 8 9 10 11 12 13 14 15 16 17 18 19 20 21 22 23 24 25 26 27 28 29 30 31 32 33 34 35 36 37 38 39 40 41 42 43 44 45 46 47 48 49 50

618
ASUS43 KTOP 202308
RWRKS

WEATHER ROUNDUP FOR KANSAS
NATIONAL WEATHER SERVICE GOODLAND KS
600 PM CDT FRI OCT 20 2017

NOTE:  "FAIR" INDICATES FEW OR NO CLOUDS BELOW 12,000 FEET WITH NO
SIGNIFICANT WEATHER AND/OR OBSTRUCTIONS TO VISIBILITY.

KSZ001>006-013>018-027>032-041>047-210000-
NORTHWEST KANSAS

CITY           SKY/WX    TMP DP  RH WIND       PRES   REMARKS
GOODLAND       SUNNY     77  45  32 S16G28    29.54S
HAYS           PTCLDY    76  56  49 S26G36    29.62F
HILL CITY      CLEAR     77  55  46 S28G41    29.58F
RUSSELL        MOCLDY    75  60  59 S23G39    29.65F
$$

KSZ061>065-074>080-084>089-210000-
SOUTHWEST KANSAS

CITY           SKY/WX    TMP DP  RH WIND       PRES   REMARKS
DODGE CITY     CLEAR     74  56  53 S25G43    29.65F
ELKHART          N/A     81  43  26 S22         N/A
GARDEN CITY    SUNNY     78  51  38 S25G36    29.59F
GREAT BEND     PTCLDY    75  58  55 S35G45    29.67R
LIBERAL        SUNNY     82  45  27 SW29G35   29.64F
PRATT          PTCLDY    73  56  56 S31G39    29.73R
$$

KSZ066>073-081>083-090>101-210000-
SOUTHEAST KANSAS

CITY           SKY/WX    TMP DP  RH WIND       PRES   REMARKS
CHANUTE        CLEAR     72  59  63 SE15      29.89S
COFFEYVILLE    CLEAR     74  60  61 S14G24    29.88F
HUTCHINSON     MOCLDY    74  59  59 S28G35    29.73F
MEDICINE LODGE   N/A     74  58  57 S24G45    29.73F
NEWTON         CLEAR     73  58  59 S25G32    29.78S
PARSONS        CLEAR     73  58  59 S9        29.90F
WICHITA INTL   CLOUDY    75  59  57 S26G35    29.77F
WICHITA JABRA  CLEAR     74  59  59 S21G31    29.78F
WICHITA MCCONL PTCLDY    75  56  51 S23G31    29.78F
WINFIELD       CLEAR     75  55  49 S23G30    29.83S
$$

KSZ007>012-019>026-033>040-048>060-102>105-210000-
NORTHEAST KANSAS

CITY           SKY/WX    TMP DP  RH WIND       PRES   REMARKS
CONCORDIA      CLEAR     73  58  59 S22G33    29.69F
EMPORIA        CLEAR     71  56  58 S26G36    29.81F
LAWRENCE       CLEAR     73  58  59 SE18G30   29.84F
MANHATTAN      PTCLDY    76  58  53 S17G26    29.76F
MARYSVILLE     MOCLDY    73  59  60 S17G30    29.74F
OLATHE IND     CLEAR     71  57  61 S20G26    29.88F
OLATHE EXE     CLEAR     70  57  63 S20G29    29.88F
SALINA         PTCLDY    76  59  55 S24G36    29.71F
TOPEKA BILLARD CLEAR     74  59  59 SE21G31   29.81F
TOPEKA FORBES  CLEAR     74  58  57 S21G31    29.82F
$$




USA.gov is the U.S. government's official web portal to all federal, state and local government web resources and services.